Location: *
(60.1759°S, 155.0663°W)
Time: 02:03:24
(UTC+00:00)

Cosmos 1862 Rocket - Pass Details

Date: 17 September 2019
Orbit: 603 x 635 km, 82.5° (Epoch: 21 October)

Event Time Altitude Azimuth Distance (km) Brightness Sun altitude
Rises 13:20:33 0° 196° (SSW) 2,913 7.3 -22.1°
Reaches altitude 10° 13:22:48 10° 197° (SSW) 2,004 6.4 -21.9°
Maximum altitude 13:27:12 70° 279° (W) 667 3.4 -21.5°
Enters shadow 13:27:53 59° 333° (NNW) 726 3.5 -21.4°
